Time,TemperatureF,DewpointF,PressureIn,WindDirection,WindDirectionDegrees,WindSpeedMPH,WindSpeedGustMPH,Humidity,HourlyPrecipIn,Conditions,Clouds,dailyrainin,SoftwareType,DateUTC
2013-07-23 00:02:00,68.0,-99.9,29.79,SE,135,0.0,2.0,0,-99.99,,,-99.99,,2013-07-23 07:02:00,
2013-07-23 00:12:00,68.0,-99.9,29.79,SE,135,0.0,2.0,0,-99.99,,,-99.99,,2013-07-23 07:12:00,
2013-07-23 00:22:00,69.0,-99.9,29.79,East,95,0.0,0.0,0,-99.99,,,-99.99,,2013-07-23 07:22:00,
2013-07-23 00:33:00,69.0,-99.9,29.79,East,95,0.0,0.0,0,-99.99,,,-99.99,,2013-07-23 07:33:00,
2013-07-23 00:52:00,67.0,-99.9,29.79,East,100,0.0,0.0,0,-99.99,,,-99.99,,2013-07-23 07:52:00,
2013-07-23 01:01:00,67.0,-99.9,29.79,East,100,0.0,0.0,0,-99.99,,,-99.99,,2013-07-23 08:01:00,
2013-07-23 01:11:00,67.0,-99.9,29.79,East,100,0.0,0.0,0,-99.99,,,-99.99,,2013-07-23 08:11:00,
2013-07-23 01:22:00,66.0,-99.9,29.80,East,100,0.0,0.0,0,-99.99,,,-99.99,,2013-07-23 08:22:00,
2013-07-23 01:33:00,66.0,-99.9,29.80,East,100,0.0,0.0,0,-99.99,,,-99.99,,2013-07-23 08:33:00,
2013-07-23 01:43:00,66.0,-99.9,29.80,ESE,115,0.0,1.0,0,-99.99,,,-99.99,,2013-07-23 08:43:00,
2013-07-23 01:52:00,67.0,-99.9,29.81,SE,130,0.0,0.0,0,-99.99,,,-99.99,,2013-07-23 08:52:00,
2013-07-23 02:01:00,67.0,-99.9,29.81,SE,130,0.0,0.0,0,-99.99,,,-99.99,,2013-07-23 09:01:00,
2013-07-23 02:33:00,68.0,-99.9,29.80,East,100,0.0,1.0,0,-99.99,,,-99.99,,2013-07-23 09:33:00,
2013-07-23 02:53:00,67.0,-99.9,29.80,ESE,115,0.0,3.0,0,-99.99,,,-99.99,,2013-07-23 09:53:00,
2013-07-23 03:02:00,67.0,-99.9,29.80,ESE,115,0.0,3.0,0,-99.99,,,-99.99,,2013-07-23 10:02:00,
2013-07-23 03:11:00,67.0,-99.9,29.80,ESE,115,0.0,3.0,0,-99.99,,,-99.99,,2013-07-23 10:11:00,
2013-07-23 07:44:00,67.0,-99.9,29.82,ESE,110,0.0,0.0,0,-99.99,,,-99.99,,2013-07-23 14:44:00,
2013-07-23 07:54:00,67.0,-99.9,29.82,ESE,110,0.0,0.0,0,-99.99,,,-99.99,,2013-07-23 14:54:00,
2013-07-23 08:03:00,67.0,-99.9,29.82,ESE,110,0.0,0.0,0,-99.99,,,-99.99,,2013-07-23 15:03:00,
2013-07-23 08:43:00,74.0,-99.9,29.82,SE,125,0.0,0.0,0,-99.99,,,-99.99,,2013-07-23 15:43:00,
2013-07-23 08:52:00,74.0,-99.9,29.82,SE,125,0.0,0.0,0,-99.99,,,-99.99,,2013-07-23 15:52:00,
2013-07-23 09:01:00,75.0,-99.9,29.82,North,350,0.0,2.0,0,-99.99,,,-99.99,,2013-07-23 16:01:00,
2013-07-23 09:12:00,75.0,-99.9,29.82,North,350,0.0,2.0,0,-99.99,,,-99.99,,2013-07-23 16:12:00,
2013-07-23 09:22:00,76.0,-99.9,29.82,NW,320,0.0,0.0,0,-99.99,,,-99.99,,2013-07-23 16:22:00,
2013-07-23 09:33:00,77.0,-99.9,29.82,WNW,295,3.0,3.0,0,-99.99,,,-99.99,,2013-07-23 16:33:00,
2013-07-23 09:43:00,77.0,-99.9,29.81,WNW,300,0.0,3.0,0,-99.99,,,-99.99,,2013-07-23 16:43:00,
2013-07-23 09:52:00,77.0,-99.9,29.81,WNW,300,0.0,3.0,0,-99.99,,,-99.99,,2013-07-23 16:52:00,
2013-07-23 10:02:00,78.0,-99.9,29.81,West,260,2.0,6.0,0,-99.99,,,-99.99,,2013-07-23 17:02:00,
2013-07-23 10:11:00,78.0,-99.9,29.81,West,260,2.0,6.0,0,-99.99,,,-99.99,,2013-07-23 17:11:00,
2013-07-23 10:32:00,79.0,-99.9,29.81,WNW,290,0.0,5.0,0,-99.99,,,-99.99,,2013-07-23 17:32:00,
2013-07-23 10:42:00,79.0,-99.9,29.81,WNW,290,0.0,5.0,0,-99.99,,,-99.99,,2013-07-23 17:42:00,
2013-07-23 10:57:00,80.0,-99.9,29.81,WNW,290,2.0,7.0,0,-99.99,,,-99.99,,2013-07-23 17:57:00,
2013-07-23 11:04:00,81.0,-99.9,29.81,West,260,3.0,6.0,0,-99.99,,,-99.99,,2013-07-23 18:04:00,
2013-07-23 11:14:00,81.0,-99.9,29.81,West,260,3.0,6.0,0,-99.99,,,-99.99,,2013-07-23 18:14:00,
2013-07-23 11:23:00,84.0,-99.9,29.80,NNE,25,3.0,7.0,0,-99.99,,,-99.99,,2013-07-23 18:23:00,
2013-07-23 11:26:00,82.0,-99.9,29.81,NW,315,2.0,6.0,0,-99.99,,,-99.99,,2013-07-23 18:26:00,
2013-07-23 11:49:00,84.0,-99.9,29.80,WNW,290,3.0,8.0,0,-99.99,,,-99.99,,2013-07-23 18:49:00,
2013-07-23 12:03:00,84.0,-99.9,29.80,NNE,25,3.0,7.0,0,-99.99,,,-99.99,,2013-07-23 19:03:00,
2013-07-23 12:15:00,84.0,-99.9,29.80,NNE,25,3.0,7.0,0,-99.99,,,-99.99,,2013-07-23 19:15:00,
2013-07-23 12:49:00,85.0,-99.9,29.79,West,265,3.0,10.0,0,-99.99,,,-99.99,,2013-07-23 19:49:00,
2013-07-23 12:56:00,85.0,-99.9,29.79,West,265,3.0,10.0,0,-99.99,,,-99.99,,2013-07-23 19:56:00,
2013-07-23 13:07:00,85.0,-99.9,29.79,West,265,3.0,10.0,0,-99.99,,,-99.99,,2013-07-23 20:07:00,
2013-07-23 13:14:00,85.0,-99.9,29.78,NW,325,3.0,6.0,0,-99.99,,,-99.99,,2013-07-23 20:14:00,
2013-07-23 13:23:00,89.0,-99.9,29.77,NW,305,3.0,8.0,0,-99.99,,,-99.99,,2013-07-23 20:23:00,
2013-07-23 13:25:00,87.0,-99.9,29.78,WNW,295,3.0,9.0,0,-99.99,,,-99.99,,2013-07-23 20:25:00,
2013-07-23 13:35:00,87.0,-99.9,29.78,WNW,295,3.0,9.0,0,-99.99,,,-99.99,,2013-07-23 20:35:00,
2013-07-23 13:59:00,89.0,-99.9,29.77,North,355,6.0,8.0,0,-99.99,,,-99.99,,2013-07-23 20:59:00,
2013-07-23 14:05:00,89.0,-99.9,29.77,NW,305,3.0,8.0,0,-99.99,,,-99.99,,2013-07-23 21:05:00,
2013-07-23 14:15:00,89.0,-99.9,29.77,NW,305,3.0,8.0,0,-99.99,,,-99.99,,2013-07-23 21:15:00,
2013-07-23 14:48:00,90.0,-99.9,29.75,NNW,335,3.0,8.0,0,-99.99,,,-99.99,,2013-07-23 21:48:00,
2013-07-23 14:57:00,90.0,-99.9,29.75,NNW,335,3.0,8.0,0,-99.99,,,-99.99,,2013-07-23 21:57:00,
2013-07-23 15:06:00,90.0,-99.9,29.75,NNE,15,3.0,9.0,0,-99.99,,,-99.99,,2013-07-23 22:06:00,
2013-07-23 15:24:00,91.0,-99.9,29.74,NW,325,2.0,8.0,0,-99.99,,,-99.99,,2013-07-23 22:24:00,
2013-07-23 15:47:00,92.0,-99.9,29.74,NW,315,3.0,7.0,0,-99.99,,,-99.99,,2013-07-23 22:47:00,
2013-07-23 16:02:00,92.0,-99.9,29.74,NW,315,3.0,7.0,0,-99.99,,,-99.99,,2013-07-23 23:02:00,
2013-07-23 16:26:00,91.0,-99.9,29.73,WNW,285,6.0,14.0,0,-99.99,,,-99.99,,2013-07-23 23:26:00,
2013-07-23 17:00:00,91.0,-99.9,29.73,NNW,335,3.0,10.0,0,-99.99,,,-99.99,,2013-07-24 00:00:00,
2013-07-23 17:11:00,91.0,-99.9,29.72,NW,305,3.0,12.0,0,-99.99,,,-99.99,,2013-07-24 00:11:00,
2013-07-23 17:26:00,91.0,-99.9,29.72,NNE,15,3.0,10.0,0,-99.99,,,-99.99,,2013-07-24 00:26:00,
2013-07-23 17:50:00,91.0,-99.9,29.71,North,10,3.0,8.0,0,-99.99,,,-99.99,,2013-07-24 00:50:00,
2013-07-23 17:58:00,91.0,-99.9,29.71,North,10,3.0,8.0,0,-99.99,,,-99.99,,2013-07-24 00:58:00,
2013-07-23 18:04:00,92.0,-99.9,29.71,NW,325,5.0,8.0,0,-99.99,,,-99.99,,2013-07-24 01:04:00,
2013-07-23 18:16:00,92.0,-99.9,29.71,NW,325,5.0,8.0,0,-99.99,,,-99.99,,2013-07-24 01:16:00,
2013-07-23 18:24:00,87.0,-99.9,29.71,NNW,345,3.0,8.0,0,-99.99,,,-99.99,,2013-07-24 01:24:00,
2013-07-23 18:25:00,90.0,-99.9,29.71,NW,315,3.0,12.0,0,-99.99,,,-99.99,,2013-07-24 01:25:00,
2013-07-23 18:48:00,88.0,-99.9,29.71,NNW,335,6.0,10.0,0,-99.99,,,-99.99,,2013-07-24 01:48:00,
2013-07-23 19:02:00,88.0,-99.9,29.71,NNW,335,6.0,10.0,0,-99.99,,,-99.99,,2013-07-24 02:02:00,
2013-07-23 19:19:00,87.0,-99.9,29.71,NNW,345,3.0,8.0,0,-99.99,,,-99.99,,2013-07-24 02:19:00,
2013-07-23 19:24:00,87.0,-99.9,29.73,NNW,330,3.0,7.0,0,-99.99,,,-99.99,,2013-07-24 02:24:00,
2013-07-23 19:40:00,88.0,-99.9,29.71,NW,310,2.0,9.0,0,-99.99,,,-99.99,,2013-07-24 02:40:00,
2013-07-23 20:13:00,87.0,-99.9,29.73,NNW,330,3.0,7.0,0,-99.99,,,-99.99,,2013-07-24 03:13:00,
2013-07-23 20:40:00,85.0,-99.9,29.74,NNW,330,3.0,6.0,0,-99.99,,,-99.99,,2013-07-24 03:40:00,
2013-07-23 20:47:00,85.0,-99.9,29.74,NNW,330,3.0,6.0,0,-99.99,,,-99.99,,2013-07-24 03:47:00,
2013-07-23 21:01:00,81.0,-99.9,29.75,NNW,335,5.0,9.0,0,-99.99,,,-99.99,,2013-07-24 04:01:00,
2013-07-23 21:11:00,81.0,-99.9,29.75,NNW,335,5.0,9.0,0,-99.99,,,-99.99,,2013-07-24 04:11:00,
2013-07-23 21:22:00,79.0,-99.9,29.75,NW,325,5.0,12.0,0,-99.99,,,-99.99,,2013-07-24 04:22:00,
2013-07-23 21:43:00,76.0,-99.9,29.77,NNW,340,3.0,8.0,0,-99.99,,,-99.99,,2013-07-24 04:43:00,
2013-07-23 21:53:00,76.0,-99.9,29.77,NNW,340,3.0,8.0,0,-99.99,,,-99.99,,2013-07-24 04:53:00,
2013-07-23 22:02:00,75.0,-99.9,29.77,NNW,340,3.0,10.0,0,-99.99,,,-99.99,,2013-07-24 05:02:00,
2013-07-23 22:11:00,75.0,-99.9,29.77,NNW,340,3.0,10.0,0,-99.99,,,-99.99,,2013-07-24 05:11:00,
2013-07-23 22:33:00,73.0,-99.9,29.78,NNW,335,1.0,5.0,0,-99.99,,,-99.99,,2013-07-24 05:33:00,
2013-07-23 22:43:00,72.0,-99.9,29.78,North,5,3.0,8.0,0,-99.99,,,-99.99,,2013-07-24 05:43:00,
2013-07-23 22:52:00,72.0,-99.9,29.78,North,5,3.0,8.0,0,-99.99,,,-99.99,,2013-07-24 05:52:00,
2013-07-23 23:01:00,72.0,-99.9,29.78,North,5,3.0,8.0,0,-99.99,,,-99.99,,2013-07-24 06:01:00,
2013-07-23 23:12:00,72.0,-99.9,29.79,North,5,3.0,5.0,0,-99.99,,,-99.99,,2013-07-24 06:12:00,
2013-07-23 23:43:00,70.0,-99.9,29.80,North,5,2.0,3.0,0,-99.99,,,-99.99,,2013-07-24 06:43:00,
2013-07-23 23:53:00,70.0,-99.9,29.80,North,5,2.0,3.0,0,-99.99,,,-99.99,,2013-07-24 06:53:00,